,,,PA_Meas_PMT16A,,PR_Meas_QMR101_102,,RH_Meas_QMH101,,SR_Meas_QMS101,,TA_Meas_QMH101,,GenWind,,GenWind,
date,time,status,PA,status,PR,status,RH,status,SR,status,TA,status,DirAvg,status,SpdAvg,
2014-12-20, 00:00:04,VALID,1010.86,VALID,0.5,INVALID,119.831,VALID,0,VALID,23.8091,VALID,99,VALID,0,
2014-12-20, 00:01:04,VALID,1010.87,VALID,0,INVALID,119.816,VALID,0,VALID,23.8109,VALID,99,VALID,0,
2014-12-20, 00:02:04,VALID,1010.87,VALID,0,INVALID,119.808,VALID,0,VALID,23.8109,VALID,99,VALID,0,
2014-12-20, 00:03:04,VALID,1010.91,VALID,0,INVALID,119.793,VALID,0,VALID,23.8109,VALID,99,VALID,0,
2014-12-20, 00:04:04,VALID,1010.9,VALID,0,INVALID,119.747,VALID,0,VALID,23.8109,VALID,99,VALID,0,
2014-12-20, 00:05:04,VALID,1010.93,VALID,0,INVALID,119.724,VALID,0,VALID,23.7701,VALID,99,VALID,0,
2014-12-20, 00:06:04,VALID,1010.89,VALID,0,INVALID,119.671,VALID,0,VALID,23.7896,VALID,99,VALID,0,
2014-12-20, 00:07:04,VALID,1010.91,VALID,0,INVALID,119.686,VALID,0,VALID,23.7701,VALID,99,VALID,0,
2014-12-20, 00:08:04,VALID,1010.9,VALID,0,INVALID,119.671,VALID,0,VALID,23.7914,VALID,99,VALID,0,
2014-12-20, 00:09:04,VALID,1010.9,VALID,0,INVALID,119.671,VALID,0,VALID,23.772,VALID,99,VALID,0,
2014-12-20, 00:10:04,VALID,1010.91,VALID,0,INVALID,119.61,VALID,0,VALID,23.772,VALID,99,VALID,0,
2014-12-20, 00:11:04,VALID,1010.9,VALID,0,INVALID,119.579,VALID,0,VALID,23.772,VALID,99,VALID,0,
2014-12-20, 00:12:04,VALID,1010.88,VALID,0,INVALID,119.557,VALID,0,VALID,23.7914,VALID,99,VALID,0,
2014-12-20, 00:13:04,VALID,1010.88,VALID,0,INVALID,119.48,VALID,0.112112,VALID,23.772,VALID,99,VALID,0,
2014-12-20, 00:14:04,VALID,1010.88,VALID,0,INVALID,119.549,VALID,0,VALID,23.7525,VALID,99,VALID,0,
2014-12-20, 00:15:04,VALID,1010.87,VALID,0,INVALID,119.656,VALID,0,VALID,23.733,VALID,99,VALID,0,
2014-12-20, 00:16:04,VALID,1010.87,VALID,0,INVALID,119.541,VALID,0,VALID,23.733,VALID,99,VALID,0,
2014-12-20, 00:17:04,VALID,1010.87,VALID,0,INVALID,119.488,VALID,0,VALID,23.733,VALID,99,VALID,0,
2014-12-20, 00:18:04,VALID,1010.85,VALID,0.5,INVALID,119.419,VALID,0,VALID,23.733,VALID,99,VALID,0,
2014-12-20, 00:19:04,VALID,1010.88,VALID,0,INVALID,119.45,VALID,0,VALID,23.7543,VALID,99,VALID,0,
2014-12-20, 00:20:04,VALID,1010.86,VALID,0,INVALID,119.366,VALID,0,VALID,23.733,VALID,99,VALID,0,
2014-12-20, 00:21:04,VALID,1010.89,VALID,0,INVALID,119.343,VALID,0,VALID,23.7543,VALID,99,VALID,0,
2014-12-20, 00:22:04,VALID,1010.86,VALID,0,INVALID,119.343,VALID,0,VALID,23.7135,VALID,99,VALID,0,
2014-12-20, 00:23:04,VALID,1010.85,VALID,0,INVALID,119.328,VALID,0,VALID,23.733,VALID,99,VALID,0,
2014-12-20, 00:24:04,VALID,1010.84,VALID,0,INVALID,119.335,VALID,0,VALID,23.694,VALID,99,VALID,0,
2014-12-20, 00:25:04,VALID,1010.82,VALID,0,INVALID,119.313,VALID,0,VALID,23.694,VALID,99,VALID,0,
2014-12-20, 00:26:04,VALID,1010.84,VALID,0,INVALID,119.282,VALID,0,VALID,23.694,VALID,99,VALID,0,
2014-12-20, 00:27:04,VALID,1010.85,VALID,0,INVALID,119.328,VALID,0,VALID,23.694,VALID,99,VALID,0,
2014-12-20, 00:28:04,VALID,1010.86,VALID,0,INVALID,119.32,VALID,0,VALID,23.6745,VALID,99,VALID,0,
2014-12-20, 00:29:04,VALID,1010.83,VALID,0,INVALID,119.305,VALID,0,VALID,23.6745,VALID,99,VALID,0,
2014-12-20, 00:30:04,VALID,1010.83,VALID,0,INVALID,119.267,VALID,0,VALID,23.655,VALID,99,VALID,0,
2014-12-20, 00:31:04,VALID,1010.83,VALID,0,INVALID,119.244,VALID,0,VALID,23.655,VALID,99,VALID,0,
2014-12-20, 00:32:04,VALID,1010.83,VALID,0,INVALID,119.114,VALID,0,VALID,23.655,VALID,99,VALID,0,
2014-12-20, 00:33:04,VALID,1010.82,VALID,0,INVALID,119.099,VALID,0,VALID,23.655,VALID,99,VALID,0,
2014-12-20, 00:34:04,VALID,1010.79,VALID,0,INVALID,119.152,VALID,0,VALID,23.655,VALID,99,VALID,0,
2014-12-20, 00:35:04,VALID,1010.77,VALID,0,INVALID,119.145,VALID,0,VALID,23.6763,VALID,99,VALID,0,
2014-12-20, 00:36:04,VALID,1010.79,VALID,0,INVALID,119.084,VALID,0,VALID,23.6356,VALID,99,VALID,0,
2014-12-20, 00:37:04,VALID,1010.78,VALID,0,INVALID,119.091,VALID,0,VALID,23.6356,VALID,99,VALID,0,
2014-12-20, 00:38:04,VALID,1010.76,VALID,0,INVALID,119.145,VALID,0,VALID,23.6161,VALID,99,VALID,0,
2014-12-20, 00:39:04,VALID,1010.76,VALID,0,INVALID,119.145,VALID,0,VALID,23.5966,VALID,99,VALID,0,
2014-12-20, 00:40:04,VALID,1010.71,VALID,0,INVALID,119.084,VALID,0,VALID,23.5771,VALID,99,VALID,0,
2014-12-20, 00:41:04,VALID,1010.72,VALID,0,INVALID,119.114,VALID,0,VALID,23.5576,VALID,99,VALID,0,
2014-12-20, 00:42:04,VALID,1010.7,VALID,0,INVALID,119.008,VALID,0,VALID,23.5771,VALID,99,VALID,0,
2014-12-20, 00:43:04,VALID,1010.72,VALID,0,INVALID,119.008,VALID,0,VALID,23.5771,VALID,99,VALID,0,
2014-12-20, 00:44:04,VALID,1010.7,VALID,0,INVALID,118.908,VALID,0,VALID,23.5771,VALID,99,VALID,0,
2014-12-20, 00:45:04,VALID,1010.7,VALID,0,INVALID,119.061,VALID,0,VALID,23.5381,VALID,99,VALID,0,
2014-12-20, 00:46:04,VALID,1010.66,VALID,0,INVALID,119.015,VALID,0,VALID,23.5381,VALID,99,VALID,0,
2014-12-20, 00:47:04,VALID,1010.65,VALID,0,INVALID,118.985,VALID,0,VALID,23.5186,VALID,99,VALID,0,
2014-12-20, 00:48:04,VALID,1010.6,VALID,0,INVALID,118.985,VALID,0,VALID,23.5186,VALID,99,VALID,0,
2014-12-20, 00:49:04,VALID,1010.6,VALID,0,INVALID,118.939,VALID,0,VALID,23.5186,VALID,99,VALID,0,
2014-12-20, 00:50:04,VALID,1010.59,VALID,0,INVALID,118.878,VALID,0,VALID,23.5204,VALID,99,VALID,0,
2014-12-20, 00:51:04,VALID,1010.57,VALID,0,INVALID,118.87,VALID,0,VALID,23.4992,VALID,99,VALID,0,
2014-12-20, 00:52:04,VALID,1010.54,VALID,0.5,INVALID,118.847,VALID,0,VALID,23.4992,VALID,99,VALID,0,
2014-12-20, 00:53:04,VALID,1010.53,VALID,0,INVALID,118.809,VALID,0,VALID,23.4992,VALID,99,VALID,0,
2014-12-20, 00:54:04,VALID,1010.5,VALID,0,INVALID,118.802,VALID,0,VALID,23.4992,VALID,99,VALID,0,
2014-12-20, 00:55:04,VALID,1010.49,VALID,0,INVALID,118.664,VALID,0,VALID,23.5399,VALID,99,VALID,0,
2014-12-20, 00:56:04,VALID,1010.48,VALID,0,INVALID,118.756,VALID,0,VALID,23.5186,VALID,99,VALID,0,
2014-12-20, 00:57:04,VALID,1010.48,VALID,0,INVALID,118.733,VALID,0,VALID,23.4992,VALID,99,VALID,0,
2014-12-20, 00:58:04,VALID,1010.46,VALID,0,INVALID,118.733,VALID,0,VALID,23.4992,VALID,99,VALID,0,
2014-12-20, 00:59:04,VALID,1010.42,VALID,0,INVALID,118.695,VALID,0,VALID,23.4992,VALID,99,VALID,0,
2014-12-20, 01:00:04,VALID,1010.44,VALID,0,INVALID,118.664,VALID,0,VALID,23.4992,VALID,99,VALID,0,
2014-12-20, 01:01:04,VALID,1010.4,VALID,0,INVALID,118.649,VALID,0,VALID,23.4992,VALID,99,VALID,0,
2014-12-20, 01:02:04,VALID,1010.37,VALID,0,INVALID,118.649,VALID,0,VALID,23.4992,VALID,99,VALID,0,
2014-12-20, 01:03:04,VALID,1010.38,VALID,0,INVALID,118.619,VALID,0,VALID,23.4797,VALID,99,VALID,0,
2014-12-20, 01:04:04,VALID,1010.35,VALID,0,INVALID,118.672,VALID,0,VALID,23.4602,VALID,99,VALID,0,
2014-12-20, 01:05:04,VALID,1010.32,VALID,0,INVALID,118.634,VALID,0,VALID,23.4602,VALID,99,VALID,0,
2014-12-20, 01:06:04,VALID,1010.29,VALID,0,INVALID,118.535,VALID,0,VALID,23.4797,VALID,99,VALID,0,
2014-12-20, 01:07:04,VALID,1010.25,VALID,0,INVALID,118.481,VALID,0,VALID,23.4797,VALID,99,VALID,0,
2014-12-20, 01:08:04,VALID,1010.23,VALID,0,INVALID,118.466,VALID,0,VALID,23.4992,VALID,99,VALID,0,
2014-12-20, 01:09:04,VALID,1010.23,VALID,0,INVALID,118.489,VALID,0,VALID,23.4584,VALID,99,VALID,0,
2014-12-20, 01:10:04,VALID,1010.18,VALID,0,INVALID,118.497,VALID,0,VALID,23.4797,VALID,99,VALID,0,
2014-12-20, 01:11:04,VALID,1010.16,VALID,0,INVALID,118.542,VALID,0,VALID,23.4602,VALID,99,VALID,0,
2014-12-20, 01:12:04,VALID,1010.15,VALID,0,INVALID,118.512,VALID,0,VALID,23.4602,VALID,99,VALID,0,
2014-12-20, 01:13:04,VALID,1010.14,VALID,0,INVALID,118.443,VALID,0,VALID,23.4797,VALID,99,VALID,0,
2014-12-20, 01:14:04,VALID,1010.12,VALID,0,INVALID,118.436,VALID,0,VALID,23.4602,VALID,99,VALID,0,
2014-12-20, 01:15:04,VALID,1010.13,VALID,0,INVALID,118.321,VALID,0,VALID,23.4779,VALID,99,VALID,0,
2014-12-20, 01:16:04,VALID,1010.09,VALID,0,INVALID,118.23,VALID,0,VALID,23.5186,VALID,99,VALID,0,
2014-12-20, 01:17:04,VALID,1010.09,VALID,0,INVALID,118.344,VALID,0,VALID,23.4797,VALID,99,VALID,0,
2014-12-20, 01:18:04,VALID,1010.08,VALID,0,INVALID,118.359,VALID,0,VALID,23.4584,VALID,99,VALID,0,
2014-12-20, 01:19:04,VALID,1010.08,VALID,0,INVALID,118.397,VALID,0,VALID,23.4602,VALID,99,VALID,0,
2014-12-20, 01:20:04,VALID,1010.06,VALID,0,INVALID,118.359,VALID,0,VALID,23.4602,VALID,99,VALID,0,
2014-12-20, 01:21:04,VALID,1010.08,VALID,0,INVALID,118.314,VALID,0.112112,VALID,23.4797,VALID,98,VALID,0,
2014-12-20, 01:22:04,VALID,1010.08,VALID,0,INVALID,118.367,VALID,0,VALID,23.4407,VALID,99,VALID,0,
2014-12-20, 01:23:04,VALID,1010.03,VALID,0,INVALID,118.298,VALID,0,VALID,23.4407,VALID,99,VALID,0,
2014-12-20, 01:24:04,VALID,1010.08,VALID,0,INVALID,118.283,VALID,0,VALID,23.4407,VALID,99,VALID,0,
2014-12-20, 01:25:04,VALID,1010.06,VALID,0,INVALID,118.283,VALID,0,VALID,23.4407,VALID,99,VALID,0,
2014-12-20, 01:26:04,VALID,1010.06,VALID,0,INVALID,118.275,VALID,0,VALID,23.4407,VALID,99,VALID,0,
2014-12-20, 01:27:04,VALID,1010.04,VALID,0,INVALID,118.214,VALID,0,VALID,23.4212,VALID,99,VALID,0,
2014-12-20, 01:28:04,VALID,1010.02,VALID,0,INVALID,118.222,VALID,0,VALID,23.4212,VALID,99,VALID,0,
2014-12-20, 01:29:04,VALID,1010,VALID,0,INVALID,118.214,VALID,0,VALID,23.4212,VALID,99,VALID,0,
2014-12-20, 01:30:04,VALID,1010,VALID,0,INVALID,118.253,VALID,0,VALID,23.4017,VALID,99,VALID,0,
2014-12-20, 01:31:04,VALID,1009.99,VALID,0,INVALID,118.184,VALID,0,VALID,23.4017,VALID,99,VALID,0,
2014-12-20, 01:32:04,VALID,1009.97,VALID,0,INVALID,118.123,VALID,0,VALID,23.4212,VALID,99,VALID,0,
2014-12-20, 01:33:04,VALID,1009.95,VALID,0,INVALID,118.131,VALID,0,VALID,23.4017,VALID,99,VALID,0,
2014-12-20, 01:34:04,VALID,1009.9,VALID,0,INVALID,118.054,VALID,0,VALID,23.4212,VALID,99,VALID,0,
2014-12-20, 01:35:04,VALID,1009.89,VALID,0,INVALID,118.009,VALID,0,VALID,23.4407,VALID,99,VALID,0,
2014-12-20, 01:36:04,VALID,1009.92,VALID,0,INVALID,118.085,VALID,0,VALID,23.4212,VALID,99,VALID,0,
2014-12-20, 01:37:04,VALID,1009.9,VALID,0,INVALID,117.955,VALID,0,VALID,23.4797,VALID,99,VALID,0,
2014-12-20, 01:38:04,VALID,1009.89,VALID,0,INVALID,117.925,VALID,0,VALID,23.4602,VALID,99,VALID,0,
2014-12-20, 01:39:04,VALID,1009.88,VALID,0,INVALID,117.925,VALID,0,VALID,23.4602,VALID,99,VALID,0,
2014-12-20, 01:40:04,VALID,1009.87,VALID,0,INVALID,118.062,VALID,0,VALID,23.4212,VALID,99,VALID,0,
2014-12-20, 01:41:04,VALID,1009.86,VALID,0,INVALID,117.94,VALID,0,VALID,23.4602,VALID,99,VALID,0,
2014-12-20, 01:42:04,VALID,1009.86,VALID,0,INVALID,117.932,VALID,0,VALID,23.4407,VALID,99,VALID,0,
2014-12-20, 01:43:04,VALID,1009.84,VALID,0,INVALID,117.986,VALID,0,VALID,23.4212,VALID,99,VALID,0,
2014-12-20, 01:44:04,VALID,1009.82,VALID,0,INVALID,117.97,VALID,0,VALID,23.4212,VALID,99,VALID,0,
2014-12-20, 01:45:04,VALID,1009.82,VALID,0,INVALID,117.955,VALID,0,VALID,23.4407,VALID,99,VALID,0,
2014-12-20, 01:46:04,VALID,1009.79,VALID,0,INVALID,117.97,VALID,0,VALID,23.4212,VALID,99,VALID,0,
2014-12-20, 01:47:04,VALID,1009.79,VALID,0,INVALID,117.925,VALID,0,VALID,23.4212,VALID,99,VALID,0,
2014-12-20, 01:48:04,VALID,1009.78,VALID,0,INVALID,117.787,VALID,0,VALID,23.4407,VALID,99,VALID,0,
2014-12-20, 01:49:04,VALID,1009.77,VALID,0,INVALID,117.772,VALID,0,VALID,23.4602,VALID,99,VALID,0,
2014-12-20, 01:50:04,VALID,1009.75,VALID,0,INVALID,117.719,VALID,0,VALID,23.4797,VALID,99,VALID,0,
2014-12-20, 01:51:04,VALID,1009.77,VALID,0,INVALID,117.757,VALID,0,VALID,23.4797,VALID,99,VALID,0,
2014-12-20, 01:52:04,VALID,1009.74,VALID,0,INVALID,117.719,VALID,0,VALID,23.4779,VALID,99,VALID,0,
2014-12-20, 01:53:04,VALID,1009.74,VALID,0,INVALID,117.765,VALID,0.112112,VALID,23.4797,VALID,99,VALID,0,
2014-12-20, 01:54:04,VALID,1009.73,VALID,0,INVALID,117.879,VALID,0,VALID,23.4602,VALID,99,VALID,0,
2014-12-20, 01:55:04,VALID,1009.73,VALID,0,INVALID,117.818,VALID,0,VALID,23.4797,VALID,99,VALID,0,
2014-12-20, 01:56:04,VALID,1009.71,VALID,0,INVALID,117.749,VALID,0,VALID,23.4602,VALID,99,VALID,0,
2014-12-20, 01:57:04,VALID,1009.71,VALID,0,INVALID,117.81,VALID,0,VALID,23.4602,VALID,99,VALID,0,
2014-12-20, 01:58:04,VALID,1009.68,VALID,0,INVALID,117.673,VALID,0,VALID,23.4797,VALID,99,VALID,0,
2014-12-20, 01:59:04,VALID,1009.66,VALID,0,INVALID,117.704,VALID,0,VALID,23.4797,VALID,99,VALID,0,
2014-12-20, 02:00:04,VALID,1009.66,VALID,0,INVALID,117.719,VALID,0,VALID,23.4797,VALID,99,VALID,0,
2014-12-20, 02:01:04,VALID,1009.66,VALID,0,INVALID,117.65,VALID,0,VALID,23.4797,VALID,99,VALID,0,
2014-12-20, 02:02:04,VALID,1009.62,VALID,0,INVALID,117.513,VALID,0,VALID,23.5204,VALID,99,VALID,0,
2014-12-20, 02:03:04,VALID,1009.61,VALID,0,INVALID,117.52,VALID,0,VALID,23.5186,VALID,99,VALID,0,
2014-12-20, 02:04:04,VALID,1009.61,VALID,0,INVALID,117.536,VALID,0,VALID,23.5381,VALID,99,VALID,0,
2014-12-20, 02:05:04,VALID,1009.6,VALID,0,INVALID,117.62,VALID,0,VALID,23.5186,VALID,99,VALID,0,
2014-12-20, 02:06:04,VALID,1009.58,VALID,0,INVALID,117.528,VALID,0,VALID,23.5594,VALID,99,VALID,0,
2014-12-20, 02:07:04,VALID,1009.56,VALID,0,INVALID,117.49,VALID,0,VALID,23.5381,VALID,99,VALID,0,
2014-12-20, 02:08:04,VALID,1009.57,VALID,0,INVALID,117.597,VALID,0,VALID,23.4992,VALID,99,VALID,0,
2014-12-20, 02:09:04,VALID,1009.57,VALID,0,INVALID,117.627,VALID,0,VALID,23.4779,VALID,99,VALID,0,
2014-12-20, 02:10:04,VALID,1009.56,VALID,0,INVALID,117.581,VALID,0,VALID,23.4992,VALID,99,VALID,0,
2014-12-20, 02:11:04,VALID,1009.57,VALID,0,INVALID,117.581,VALID,0,VALID,23.4797,VALID,99,VALID,0,
2014-12-20, 02:12:04,VALID,1009.56,VALID,0,INVALID,117.62,VALID,0,VALID,23.4602,VALID,99,VALID,0,
2014-12-20, 02:13:04,VALID,1009.57,VALID,0,INVALID,117.635,VALID,0,VALID,23.4407,VALID,99,VALID,0,
2014-12-20, 02:14:04,VALID,1009.58,VALID,0,INVALID,117.658,VALID,0,VALID,23.4212,VALID,99,VALID,0,
2014-12-20, 02:15:04,VALID,1009.57,VALID,0,INVALID,117.604,VALID,0,VALID,23.4212,VALID,99,VALID,0,
2014-12-20, 02:16:04,VALID,1009.56,VALID,0.5,INVALID,117.536,VALID,0.112112,VALID,23.4407,VALID,99,VALID,0,
2014-12-20, 02:17:04,VALID,1009.56,VALID,0,INVALID,117.49,VALID,0.112112,VALID,23.4602,VALID,99,VALID,0,
2014-12-20, 02:18:04,VALID,1009.56,VALID,0,INVALID,117.475,VALID,0.112112,VALID,23.4407,VALID,98,VALID,0,
2014-12-20, 02:19:04,VALID,1009.56,VALID,0,INVALID,117.475,VALID,0.112112,VALID,23.4389,VALID,99,VALID,0,
2014-12-20, 02:20:04,VALID,1009.56,VALID,0,INVALID,117.505,VALID,0,VALID,23.4407,VALID,98,VALID,0,
2014-12-20, 02:21:05,VALID,1009.54,VALID,0,INVALID,117.498,VALID,0.112112,VALID,23.4212,VALID,99,VALID,0,
2014-12-20, 02:22:05,VALID,1009.55,VALID,0,INVALID,117.475,VALID,0.112112,VALID,23.4212,VALID,99,VALID,0,
2014-12-20, 02:23:05,VALID,1009.55,VALID,0,INVALID,117.437,VALID,0.112112,VALID,23.4,VALID,99,VALID,0,
2014-12-20, 02:24:05,VALID,1009.55,VALID,0,INVALID,117.376,VALID,0,VALID,23.4407,VALID,99,VALID,0,
2014-12-20, 02:25:05,VALID,1009.52,VALID,0,INVALID,117.315,VALID,0.112112,VALID,23.4407,VALID,99,VALID,0,
2014-12-20, 02:26:05,VALID,1009.53,VALID,0,INVALID,117.315,VALID,0.112112,VALID,23.4407,VALID,99,VALID,0,
2014-12-20, 02:27:05,VALID,1009.49,VALID,0,INVALID,117.322,VALID,0.112112,VALID,23.4194,VALID,99,VALID,0,
2014-12-20, 02:28:05,VALID,1009.5,VALID,0,INVALID,117.337,VALID,0,VALID,23.4212,VALID,99,VALID,0,
2014-12-20, 02:29:05,VALID,1009.51,VALID,0,INVALID,117.33,VALID,0.112112,VALID,23.4407,VALID,99,VALID,0,
2014-12-20, 02:30:05,VALID,1009.49,VALID,0,INVALID,117.322,VALID,0.112112,VALID,23.4407,VALID,99,VALID,0,
2014-12-20, 02:31:05,VALID,1009.49,VALID,0,INVALID,117.337,VALID,0,VALID,23.4407,VALID,99,VALID,0,
2014-12-20, 02:32:05,VALID,1009.48,VALID,0,INVALID,117.337,VALID,0.112112,VALID,23.4407,VALID,99,VALID,0,
2014-12-20, 02:33:05,VALID,1009.46,VALID,0,INVALID,117.299,VALID,0.112112,VALID,23.4212,VALID,99,VALID,0,
2014-12-20, 02:34:05,VALID,1009.46,VALID,0,INVALID,117.307,VALID,0.112112,VALID,23.4212,VALID,99,VALID,0,
2014-12-20, 02:35:05,VALID,1009.43,VALID,0,INVALID,117.254,VALID,0.112112,VALID,23.4194,VALID,99,VALID,0,
2014-12-20, 02:36:05,VALID,1009.44,VALID,0,INVALID,117.292,VALID,0,VALID,23.4212,VALID,99,VALID,0,
2014-12-20, 02:37:05,VALID,1009.43,VALID,0,INVALID,117.215,VALID,0.112112,VALID,23.4194,VALID,99,VALID,0,
2014-12-20, 02:38:05,VALID,1009.43,VALID,0,INVALID,117.223,VALID,0.112112,VALID,23.4212,VALID,99,VALID,0,
2014-12-20, 02:39:05,VALID,1009.41,VALID,0,INVALID,117.307,VALID,0.112112,VALID,23.4017,VALID,99,VALID,0,
2014-12-20, 02:40:05,VALID,1009.44,VALID,0,INVALID,117.223,VALID,0.112112,VALID,23.4,VALID,99,VALID,0,
2014-12-20, 02:41:05,VALID,1009.42,VALID,0,INVALID,117.231,VALID,0.112112,VALID,23.4212,VALID,99,VALID,0,
2014-12-20, 02:42:05,VALID,1009.45,VALID,0,INVALID,117.238,VALID,0.112112,VALID,23.4212,VALID,99,VALID,0,
2014-12-20, 02:43:05,VALID,1009.46,VALID,0,INVALID,117.231,VALID,0.112112,VALID,23.3805,VALID,99,VALID,0,
2014-12-20, 02:44:05,VALID,1009.46,VALID,0,INVALID,117.185,VALID,0.112112,VALID,23.3805,VALID,99,VALID,0,
2014-12-20, 02:45:05,VALID,1009.45,VALID,0,INVALID,117.177,VALID,0.112112,VALID,23.4017,VALID,98,VALID,0,
2014-12-20, 02:46:05,VALID,1009.44,VALID,0,INVALID,117.139,VALID,0.112112,VALID,23.4017,VALID,99,VALID,0,
2014-12-20, 02:47:05,VALID,1009.45,VALID,0,INVALID,117.162,VALID,0,VALID,23.3805,VALID,99,VALID,0,
2014-12-20, 02:48:05,VALID,1009.44,VALID,0,INVALID,117.185,VALID,0.112112,VALID,23.3805,VALID,99,VALID,0,
2014-12-20, 02:49:05,VALID,1009.46,VALID,0,INVALID,117.124,VALID,0,VALID,23.361,VALID,99,VALID,0,
2014-12-20, 02:50:05,VALID,1009.45,VALID,0,INVALID,117.132,VALID,0.112112,VALID,23.361,VALID,99,VALID,0,
2014-12-20, 02:51:05,VALID,1009.47,VALID,0,INVALID,117.071,VALID,0.112112,VALID,23.4017,VALID,99,VALID,0,
2014-12-20, 02:52:05,VALID,1009.49,VALID,0,INVALID,117.093,VALID,0.112112,VALID,23.361,VALID,99,VALID,0,
2014-12-20, 02:53:05,VALID,1009.47,VALID,0,INVALID,117.101,VALID,0.112112,VALID,23.3823,VALID,99,VALID,0,
2014-12-20, 02:54:05,VALID,1009.47,VALID,0,INVALID,117.093,VALID,0.112112,VALID,23.3823,VALID,99,VALID,0,
2014-12-20, 02:55:05,VALID,1009.49,VALID,0,INVALID,117.063,VALID,0.112112,VALID,23.3823,VALID,99,VALID,0,
2014-12-20, 02:56:05,VALID,1009.5,VALID,0,INVALID,117.032,VALID,0,VALID,23.3823,VALID,99,VALID,0,
2014-12-20, 02:57:05,VALID,1009.48,VALID,0,INVALID,117.017,VALID,0.112112,VALID,23.4017,VALID,99,VALID,0,
2014-12-20, 02:58:05,VALID,1009.47,VALID,0,INVALID,117.04,VALID,0.112112,VALID,23.361,VALID,99,VALID,0,
2014-12-20, 02:59:05,VALID,1009.5,VALID,0,INVALID,116.964,VALID,0.112112,VALID,23.3823,VALID,99,VALID,0,
2014-12-20, 03:00:05,VALID,1009.47,VALID,0,INVALID,116.964,VALID,0.112112,VALID,23.3805,VALID,99,VALID,0,
2014-12-20, 03:01:05,VALID,1009.46,VALID,0,INVALID,116.971,VALID,0.112112,VALID,23.4017,VALID,99,VALID,0,
2014-12-20, 03:02:05,VALID,1009.47,VALID,0,INVALID,116.91,VALID,0.112112,VALID,23.4212,VALID,99,VALID,0,
2014-12-20, 03:03:05,VALID,1009.44,VALID,0,INVALID,116.827,VALID,0.112112,VALID,23.4194,VALID,99,VALID,0,
2014-12-20, 03:04:05,VALID,1009.42,VALID,0,INVALID,116.926,VALID,0.112112,VALID,23.4,VALID,99,VALID,0,
2014-12-20, 03:05:05,VALID,1009.41,VALID,0,INVALID,116.941,VALID,0.112112,VALID,23.4,VALID,99,VALID,0,
2014-12-20, 03:06:05,VALID,1009.42,VALID,0,INVALID,116.895,VALID,0.112112,VALID,23.4,VALID,98,VALID,0,
2014-12-20, 03:07:05,VALID,1009.45,VALID,0.5,INVALID,116.903,VALID,0,VALID,23.3805,VALID,99,VALID,0,
2014-12-20, 03:08:05,VALID,1009.44,VALID,0,INVALID,116.926,VALID,0.112112,VALID,23.3805,VALID,99,VALID,0,
2014-12-20, 03:09:05,VALID,1009.41,VALID,0,INVALID,116.964,VALID,0,VALID,23.3823,VALID,99,VALID,0,
2014-12-20, 03:10:05,VALID,1009.41,VALID,0,INVALID,116.895,VALID,0,VALID,23.4017,VALID,99,VALID,0,
2014-12-20, 03:11:05,VALID,1009.38,VALID,0,INVALID,116.903,VALID,0.112112,VALID,23.3823,VALID,98,VALID,0,
2014-12-20, 03:12:05,VALID,1009.39,VALID,0,INVALID,116.903,VALID,0.112112,VALID,23.361,VALID,99,VALID,0,
2014-12-20, 03:13:05,VALID,1009.37,VALID,0,INVALID,116.842,VALID,0,VALID,23.3823,VALID,99,VALID,0,
2014-12-20, 03:14:05,VALID,1009.36,VALID,0,INVALID,116.834,VALID,0.112112,VALID,23.3823,VALID,99,VALID,0,
2014-12-20, 03:15:05,VALID,1009.35,VALID,0,INVALID,116.849,VALID,0,VALID,23.361,VALID,99,VALID,0,
2014-12-20, 03:16:05,VALID,1009.35,VALID,0,INVALID,116.842,VALID,0.112112,VALID,23.3823,VALID,99,VALID,0,
2014-12-20, 03:17:05,VALID,1009.32,VALID,0,INVALID,116.811,VALID,0,VALID,23.3823,VALID,99,VALID,0,
2014-12-20, 03:18:05,VALID,1009.33,VALID,0,INVALID,116.75,VALID,0.112112,VALID,23.3805,VALID,99,VALID,0,
2014-12-20, 03:19:05,VALID,1009.3,VALID,0,INVALID,116.697,VALID,0.112112,VALID,23.4,VALID,99,VALID,0,
2014-12-20, 03:20:05,VALID,1009.3,VALID,0,INVALID,116.682,VALID,0,VALID,23.4,VALID,99,VALID,0,
2014-12-20, 03:21:05,VALID,1009.32,VALID,0,INVALID,116.727,VALID,0,VALID,23.4407,VALID,99,VALID,0,
2014-12-20, 03:22:05,VALID,1009.29,VALID,0,INVALID,116.72,VALID,0,VALID,23.4212,VALID,99,VALID,0,
2014-12-20, 03:23:05,VALID,1009.27,VALID,0,INVALID,116.735,VALID,0,VALID,23.4212,VALID,99,VALID,0,
2014-12-20, 03:24:05,VALID,1009.26,VALID,0,INVALID,116.682,VALID,0.112112,VALID,23.4407,VALID,98,VALID,0,
2014-12-20, 03:25:05,VALID,1009.26,VALID,0,INVALID,116.766,VALID,0,VALID,23.4017,VALID,99,VALID,0,
2014-12-20, 03:26:05,VALID,1009.24,VALID,0,INVALID,116.796,VALID,0.112112,VALID,23.3823,VALID,99,VALID,0,
2014-12-20, 03:27:05,VALID,1009.24,VALID,0,INVALID,116.773,VALID,0.112112,VALID,23.3805,VALID,99,VALID,0,
2014-12-20, 03:28:05,VALID,1009.25,VALID,0,INVALID,116.682,VALID,0,VALID,23.4017,VALID,99,VALID,0,
2014-12-20, 03:29:05,VALID,1009.23,VALID,0,INVALID,116.727,VALID,0,VALID,23.4017,VALID,99,VALID,0,
2014-12-20, 03:30:05,VALID,1009.24,VALID,0,INVALID,116.705,VALID,0.112112,VALID,23.4017,VALID,99,VALID,0,
2014-12-20, 03:31:05,VALID,1009.22,VALID,0,INVALID,116.666,VALID,0.112112,VALID,23.4212,VALID,99,VALID,0,
2014-12-20, 03:32:05,VALID,1009.24,VALID,0,INVALID,116.682,VALID,0,VALID,23.4,VALID,99,VALID,0,
2014-12-20, 03:33:05,VALID,1009.19,VALID,0,INVALID,116.712,VALID,0,VALID,23.4017,VALID,99,VALID,0,
2014-12-20, 03:34:05,VALID,1009.18,VALID,0,INVALID,116.666,VALID,0,VALID,23.4212,VALID,99,VALID,0,
2014-12-20, 03:35:05,VALID,1009.19,VALID,0,INVALID,116.659,VALID,0,VALID,23.423,VALID,99,VALID,0,
2014-12-20, 03:36:05,VALID,1009.21,VALID,0,INVALID,116.712,VALID,0,VALID,23.4017,VALID,99,VALID,0,
2014-12-20, 03:37:05,VALID,1009.21,VALID,0,INVALID,116.636,VALID,0,VALID,23.4017,VALID,99,VALID,0,
2014-12-20, 03:38:05,VALID,1009.18,VALID,0,INVALID,116.644,VALID,0.112112,VALID,23.4017,VALID,99,VALID,0,
2014-12-20, 03:39:05,VALID,1009.16,VALID,0,INVALID,116.59,VALID,0.112112,VALID,23.3805,VALID,99,VALID,0,
2014-12-20, 03:40:05,VALID,1009.14,VALID,0,INVALID,116.666,VALID,0,VALID,23.361,VALID,99,VALID,0,
2014-12-20, 03:41:05,VALID,1009.12,VALID,0,INVALID,116.651,VALID,0,VALID,23.3805,VALID,99,VALID,0,
2014-12-20, 03:42:05,VALID,1009.09,VALID,0,INVALID,116.575,VALID,0.112112,VALID,23.4017,VALID,99,VALID,0,
2014-12-20, 03:43:05,VALID,1009.08,VALID,0,INVALID,116.666,VALID,0,VALID,23.361,VALID,99,VALID,0,
2014-12-20, 03:44:05,VALID,1009.09,VALID,0,INVALID,116.59,VALID,0,VALID,23.361,VALID,99,VALID,0,
2014-12-20, 03:45:05,VALID,1009.07,VALID,0,INVALID,116.552,VALID,0,VALID,23.4017,VALID,99,VALID,0,
2014-12-20, 03:46:05,VALID,1009.07,VALID,0,INVALID,116.468,VALID,0,VALID,23.4212,VALID,99,VALID,0,
2014-12-20, 03:47:05,VALID,1009.07,VALID,0,INVALID,116.476,VALID,0.112112,VALID,23.4,VALID,99,VALID,0,
2014-12-20, 03:48:05,VALID,1009.05,VALID,0,INVALID,116.56,VALID,0,VALID,23.4017,VALID,99,VALID,0,
2014-12-20, 03:49:05,VALID,1009.04,VALID,0,INVALID,116.56,VALID,0,VALID,23.4017,VALID,98,VALID,0,
2014-12-20, 03:50:05,VALID,1009.07,VALID,0,INVALID,116.598,VALID,0,VALID,23.3823,VALID,99,VALID,0,
2014-12-20, 03:51:05,VALID,1009.05,VALID,0,INVALID,116.583,VALID,0,VALID,23.3628,VALID,99,VALID,0,
2014-12-20, 03:52:05,VALID,1009.05,VALID,0,INVALID,116.56,VALID,0.112112,VALID,23.4017,VALID,99,VALID,0,
2014-12-20, 03:53:05,VALID,1009.05,VALID,0,INVALID,116.544,VALID,0.112112,VALID,23.3823,VALID,99,VALID,0,